Content
SEND FEEDBACK

Daily
Averages
Monthly
Summary
United States of America

HOPE, KANSAS


Home > North America > United States > Kansas
Elevation: 1330 feet     Latitude: 38 41N     Longitude: 097 14W

WEATHER
 
SELECT A DAY
Number of Records: 194,792;   Date Range: 1/1/95 - 12/26/14
 
SHARE

PRINT THIS DATA

[ ← Previous Day ]
WEATHER ALMANAC - JANUARY 31, 2013
[ Next Day → ]
[ °C ]   °F
Weather ElementAverageHighLow
Temperature19.1 °F23 °F (5:53 am)9 °F (9:53 pm)
Dewpoint11.7 °F17.1 °F (5:53 am)3 °F (9:53 pm)
Humidity73.3 %81 % (1:53 am)55 % (3:53 pm)
Barometer30.27 in30.51 in (9:53 pm)29.96 in (1:53 am)
Wind Speed9.2 mph23 mph (2:53 pm)
Wind Gust24.2 mph (12:53 pm)
Weather ElementAverage
Visibility8.6 mi
Wind DirectionSSW (217.4 °)

Weather ElementTotal
Precipitation---
Heating Degree Days49 (Base 65)
Averaged from 27 records on January 31, 2013
WEATHER CONDITIONS BREAKOUT
WIND DIRECTION BREAKOUT
WEATHER BY HOUR - JANUARY 31, 2013
[ °C ]   °F
Local TimeTemperatureDewpointHumidityBarometerVisibilityWind DirectionWind SpeedGust SpeedPrecipitationEventsConditions
1:53 AM19.0 °F14.0 °F81 %29.96 in10.0 miCalmClear
2:53 AM18.0 °F12.9 °F81 %29.98 in10.0 miSW (220°)6.9 mphClear
3:53 AM19.9 °F14.0 °F78 %30.00 in10.0 miCalmPartly Cloudy
4:53 AM21.2 °F15.8 °F80 %29.97 in10.0 miNorth (350°)8.1 mphOvercast
5:53 AM23.0 °F17.1 °F78 %30.04 in10.0 miNNW (340°)10.4 mphOvercast
6:53 AM21.9 °F16.0 °F78 %30.09 in10.0 miNorth (350°)5.8 mphOvercast
7:53 AM21.9 °F14.0 °F72 %30.12 in10.0 miNNE (30°)9.2 mphOvercast
8:53 AM21.9 °F12.9 °F68 %30.18 in10.0 miNNE (20°)11.5 mphOvercast
9:53 AM21.9 °F15.1 °F75 %30.26 in2.0 miNorth (360°)11.5 mph0.00 inSnowLight Snow
10:04 AM21.2 °F15.8 °F80 %30.21 in1.0 miNorth (360°)9.2 mph0.00 inSnowLight Snow
10:12 AM21.2 °F15.8 °F80 %30.21 in1.0 miNorth (10°)10.4 mph0.00 inSnowLight Snow
10:27 AM21.2 °F15.8 °F80 %30.22 in3.0 miNorth (360°)10.4 mph0.00 inSnowLight Snow
10:41 AM21.2 °F15.8 °F80 %30.23 in9.0 miNorth (360°)11.5 mph0.00 inOvercast
10:53 AM21.9 °F16.0 °F78 %30.30 in10.0 miNorth (360°)15.0 mph0.00 inOvercast
11:40 AM21.2 °F14.0 °F74 %30.28 in9.0 miNorth (360°)16.1 mphOvercast
11:53 AM21.9 °F14.0 °F72 %30.35 in9.0 miNorth (360°)21.9 mph0.00 inOvercast
12:53 PM21.9 °F12.0 °F66 %30.36 in10.0 miNorth (10°)18.4 mph24.2 mphMostly Cloudy
2:53 PM21.9 °F10.0 °F60 %30.38 in9.0 miNorth (350°)23.0 mphClear
3:53 PM21.9 °F8.1 °F55 %30.38 in9.0 miNorth (350°)18.4 mphPartly Cloudy
4:53 PM19.9 °F9.0 °F62 %30.41 in10.0 miNNW (340°)11.5 mphClear
5:53 PM17.6 °F6.8 °F63 %30.36 in10.0 miNNW (330°)4.6 mphClear
6:53 PM16.0 °F6.1 °F65 %30.44 in10.0 miCalmClear
7:53 PM12.9 °F5.0 °F71 %30.49 in10.0 miWSW (240°)5.8 mphClear
8:53 PM12.0 °F5.0 °F73 %30.50 in10.0 miSW (220°)3.5 mphClear
9:53 PM9.0 °F3.0 °F77 %30.51 in10.0 miSouth (190°)4.6 mphClear
10:53 PM10.9 °F6.1 °F81 %30.49 in10.0 miCalmClear
11:53 PM14.0 °F6.1 °F71 %30.48 in10.0 miCalmScattered Clouds
Hourly data recorded from KSLN, located miles away from Hope, Kansas







STORIES FROM OUR PARTNERS